Overview Statistics Trail Chart Weather Telemetry Raw packets
 

This is the latest recevied weather packets stored in our database for station/object WX0ABE-13. If no packets are shown the sender has not sent any weather packets the latest 10 day(s).

<< 23 24 25 26 27 28 29 >>
Time Temp. Humidity Pressure Rain* Wind** Luminosity Snow
1788200052 30.56° C 33% 1019 hPa 0 mm - 595 W/m² -
1788199752 31.11° C 30% 1019.2 hPa 0 mm - 685 W/m² -
1788199446 30.56° C 35% 1019.2 hPa 0 mm - 677 W/m² -
1788199145 30° C 35% 1019.2 hPa 0 mm - 660 W/m² -
1788198842 30° C 33% 1019.3 hPa 0 mm - 616 W/m² -
1788198538 29.44° C 36% 1019.3 hPa 0 mm - 726 W/m² -
1788198233 28.89° C 39% 1019.4 hPa 0 mm - 442 W/m² -
1788197931 28.89° C 39% 1019.5 hPa 0 mm - 364 W/m² -
1788197626 29.44° C 37% 1019.4 hPa 0 mm - 421 W/m² -
1788197322 29.44° C 40% 1019.5 hPa 0 mm - 618 W/m² -
1788197017 29.44° C 39% 1019.5 hPa 0 mm - 623 W/m² -
1788196716 29.44° C 40% 1019.6 hPa 0 mm - 613 W/m² -
1788196413 28.89° C 39% 1019.5 hPa 0 mm - 604 W/m² -
1788196110 28.89° C 41% 1019.6 hPa 0 mm - 595 W/m² -
1788195805 28.33° C 41% 1019.8 hPa 0 mm - 587 W/m² -
1788195502 28.89° C 42% 1019.8 hPa 0 mm - 579 W/m² -
1788195198 28.33° C 42% 1019.8 hPa 0 mm - 570 W/m² -
1788194894 27.78° C 45% 1019.6 hPa 0 mm - 557 W/m² -
1788194590 27.22° C 44% 1019.6 hPa 0 mm - 552 W/m² -
1788194285 26.67° C 50% 1019.6 hPa 0 mm - 546 W/m² -
1788193981 26.67° C 46% 1019.8 hPa 0 mm - 532 W/m² -
1788193679 26.11° C 50% 1019.5 hPa 0 mm - 524 W/m² -
1788193374 26.11° C 50% 1019.6 hPa 0 mm - 509 W/m² -
1788193068 26.11° C 50% 1019.8 hPa 0 mm - 492 W/m² -
1788192778 25.56° C 51% 1019.8 hPa 0 mm - 428 W/m² -

* Rain latest hour (hover to see other rain measurements)
** Current wind speed in m/s (hover to see current wind gust speed)